• Join FlightAware (Why Join?)
  • Login
  • US Flag 
10:38PM EST


 

Airport Tracker/Info


-or-


 

Live Flight TrackerFlight Track Log ✈ SWA696 ✈ 28-Apr-2013 ✈ KSTL - KMDW

Flight Track Log - Related Links

Times and Time Zones

All times are in EDT time to prevent confusion due to time zone crossing. See the SWA696 flight status page for this flight to view local times or setup timezone preferences in your user account.

Time Position Orientation Groundspeed Altitude Reporting Facility
EDT Latitude Longitude Course Direction KTS MPH feet Rate Location/Type
11:30AM 38.7667 -90.3833 17° North 155 178 1,700  Level Gateway (St. Louis) TRACON
11:31AM 38.8000 -90.4000 339° North 211 243 3,200 1,516 Climbing Gateway (St. Louis) TRACON
11:32AM 38.8369 -90.4128 345° North 236 272 4,000 2,057 Climbing Kansas City Center
11:33AM 38.9022 -90.3725 26° Northeast 253 291 6,800 3,194 Climbing Kansas City Center
11:34AM 38.9789 -90.3061 34° Northeast 272 313 10,600 2,613 Climbing Kansas City Center
11:35AM 39.0536 -90.2419 34° Northeast 318 366 12,200 2,000 Climbing Kansas City Center
11:36AM 39.0126 -90.1116 17° North  Level FlightAware Approximate
11:36AM 39.1317 -90.1739 34° Northeast 339 390 14,700  Level Kansas City Center
11:37AM 39.2153 -90.1014 34° Northeast 355 409 17,100 2,177 Climbing Kansas City Center
11:38AM 39.3000 -90.0281 34° Northeast 364 419 19,200 1,984 Climbing Kansas City Center
11:39AM 39.3928 -89.9592 30° Northeast 382 440 21,200 1,839 Climbing Kansas City Center
11:40AM 39.4900 -89.8992 25° Northeast 387 445 23,000 1,839 Climbing Kansas City Center
11:41AM 39.6111 -89.8222 26° Northeast 400 460 25,000 1,742 Climbing Kansas City Center
11:42AM 39.7158 -89.7556 26° Northeast 409 471 26,600 968 Climbing Kansas City Center
11:43AM 39.8208 -89.6900 26° Northeast 417 480 27,000 194 Climbing Kansas City Center
11:44AM 39.9178 -89.6033 34° Northeast 423 487 27,000  Level Kansas City Center
11:45AM 39.9739 -89.5525 35° Northeast 423 487 27,000 -125 Level Chicago Center
11:46AM 40.0678 -89.4611 37° Northeast 423 487 26,800 -581 Descending Chicago Center
11:47AM 40.1644 -89.3728 35° Northeast 426 490 25,800 -968 Descending Chicago Center
11:48AM 40.2672 -89.2981 29° Northeast 424 488 24,800 -1,024 Descending Chicago Center
11:49AM 40.3903 -89.2053 30° Northeast 426 490 23,700 -1,512 Descending Chicago Center
11:50AM 40.4867 -89.1317 30° Northeast 406 467 21,700 -2,032 Descending Chicago Center
11:51AM 40.5789 -89.0628 30° Northeast 387 445 19,500 -2,129 Descending Chicago Center
11:52AM 40.6678 -88.9969 29° Northeast 372 428 17,300 -1,210 Descending Chicago Center
11:53AM 40.7517 -88.9317 31° Northeast 355 409 17,000 -290 Descending Chicago Center
11:54AM 40.8350 -88.8658 31° Northeast 350 403 16,700 -732 Descending Chicago Center
11:55AM 40.9311 -88.7944 29° Northeast 358 412 15,500 -1,073 Descending Chicago Center
11:56AM 41.0153 -88.7294 30° Northeast 351 404 14,500 -1,210 Descending Chicago Center
11:57AM 41.1003 -88.6625 31° Northeast 355 409 13,000 -2,032 Descending Chicago Center
11:58AM 41.2031 -88.5842 30° Northeast 356 410 10,300 -1,548 Descending Chicago Center
11:59AM 41.2808 -88.5250 30° Northeast 328 377 9,800 -1,220 Descending Chicago Center
12:00PM 41.3486 -88.4717 31° Northeast 290 334 7,800 -1,854 Descending Chicago Center
12:01PM 41.4189 -88.4169 30° Northeast 290 334 6,000 -871 Descending Chicago Center
12:02PM 41.4669 -88.3414 50° Northeast 274 315 6,000 -242 Level Chicago Center
12:03PM 41.5006 -88.2525 63° Northeast 267 307 5,500 -488 Descending Chicago Center
12:04PM 41.5364 -88.1642 62° Northeast 268 308 5,000 -244 Descending Chicago Center
12:05PM 41.5706 -88.0778 62° Northeast 263 303 5,000  Level Chicago Center
12:06PM 41.6047 -87.9869 63° Northeast 231 266 5,000 -484 Level Chicago Center
12:08PM 41.6475 -87.9261 47° Northeast 229 264 4,000 -857 Descending Chicago Center
12:08PM 41.6833 -87.8667 51° Northeast 212 244 3,300 -974 Descending Chicago TRACON
12:09PM 41.7333 -87.8167 37° Northeast 174 200 2,100 -1,000 Descending Chicago TRACON
12:10PM 41.7500 -87.7833 56° Northeast 136 157 1,300 -800 Descending Chicago TRACON